Home > Weather > Shreveport > Past weeks

Flag for USA Past Weather in Shreveport, Louisiana, USA — Yesterday and Last 2 Weeks

Now
87 °F

Scattered clouds.


Feels Like: 94 °F
Forecast: 71 / 85 °F
Wind: 14 mph from Southeast

Location: Shreveport Regional Airport

Current Time: May 24, 2016 at 6:36:44 PM

Latest Report: May 24, 2016 at 5:56 PM


Visibility: 10 mi

Pressure: 29.94 "Hg

Humidity: 61%

Dew Point: 72 °F

Location of ShreveportLocation

Past Weather in Shreveport — Graph

°F

Shreveport Temperature Yesterday

Maximum temperature yesterday: 86 °F (at 3:56 PM)
Minimum temperature yesterday: 64 °F (at 6:56 AM)
Average temperature yesterday: 76 °F

High & Low Weather Summary for the Past Weeks

 TemperatureHumidityPressure
High88 °F (May 10, 3:56 PM)94% (May 19, 3:56 PM)30.20 "Hg (May 19, 3:56 PM)
Low60 °F (May 19, 5:03 AM)28% (May 13, 1:56 PM)29.72 "Hg (May 9, 5:56 PM)
Average73 °F71%30.00 "Hg
* Reported May 9 4:56 PM — May 24 4:56 PM, Shreveport, Weather by CustomWeather, © 2016

Note: Actual official high and low records may vary slightly from our data, if they occured in-between our weather recording intervals... More about our weather records

Advertising

Shreveport Weather History for the Previous 24 Hours

Scroll right to see more
 ConditionsComfort  
Time TempWeatherWind HumidityBarometerVisibility
4:56 PM
Tue, May 24
87 °FScattered clouds.13 mph61%29.95 "Hg10 mi
3:56 PM85 °FPartly sunny.12 mph65%29.98 "Hg10 mi
2:56 PM84 °FMostly cloudy.9 mph65%30.00 "Hg10 mi
1:56 PM83 °FMostly cloudy.8 mph65%30.01 "Hg10 mi
12:56 PM85 °FBroken clouds.12 mph63%30.01 "Hg10 mi
11:56 AM83 °FBroken clouds.12 mph65%30.02 "Hg10 mi
10:56 AM82 °FPartly sunny.8 mph67%30.03 "Hg10 mi
9:56 AM79 °FScattered clouds.9 mph74%30.02 "Hg10 mi
8:56 AM76 °FScattered clouds.9 mph82%30.01 "Hg7 mi
7:56 AM73 °FMostly cloudy.7 mph94%30.00 "Hg9 mi
6:56 AM71 °FPassing clouds.5 mph93%29.97 "Hg7 mi
5:56 AM69 °FPassing clouds.5 mph93%29.93 "Hg7 mi
4:56 AM72 °FPassing clouds.6 mph91%29.92 "Hg10 mi
3:56 AM72 °FPassing clouds.8 mph91%29.92 "Hg10 mi
2:56 AM72 °FPassing clouds.6 mph91%29.91 "Hg10 mi
1:56 AM73 °FPassing clouds.8 mph84%29.91 "Hg10 mi
12:56 AM73 °FPassing clouds.7 mph79%29.94 "Hg10 mi
11:56 PM
Mon, May 23
75 °FPassing clouds.9 mph71%29.92 "Hg10 mi
10:56 PM75 °FPassing clouds.6 mph74%29.94 "Hg10 mi
9:56 PM75 °FClear.5 mph74%29.92 "Hg10 mi
8:56 PM77 °FSunny.3 mph69%29.89 "Hg10 mi
7:56 PM81 °FPassing clouds.6 mph62%29.88 "Hg10 mi
6:56 PM84 °FScattered clouds.8 mph57%29.86 "Hg10 mi
Weather by CustomWeather, © 2016

See weather overviewHow to use our weather pages